Regional Weather Roundup
Issued by NWS

Home | Current Version | Previous Version | Graphics & Text | Print | Product List | Glossary On
Versions: 1 2 3 4 5 6 7 8 9 10 11 12 13 14 15 16 17 18 19 20 21 22 23 24 25 26 27 28 29 30 31 32 33 34 35 36 37 38 39 40 41 42 43 44 45 46 47 48 49 50
000
ASUS43 KFSD 010610
RWRSD

WEATHER ROUNDUP FOR SOUTH DAKOTA
NATIONAL WEATHER SERVICE SIOUX FALLS SD
100 AM CDT WED OCT 01 2014

NOTE: "FAIR" INDICATES FEW OR NO CLOUDS BELOW 12,000 FEET WITH NO
SIGNIFICANT WEATHER AND/OR OBSTRUCTIONS TO VISIBILITY.


SDZ001>005-009-010-012>017-010700-
NORTHWEST AND NORTH CENTRAL SOUTH DAKOTA

CITY           SKY/WX    TMP DP  RH WIND       PRES   REMARKS
BUFFALO          N/A     53  50  89 W15       29.57S
FAITH            N/A     56  50  80 W16       29.64R
MOBRIDGE       PTCLDY    58  52  80 SW12      29.57R
$$

SDZ012>016-024>037-041>051-057-063-072>074-010700-
SOUTHWEST AND SOUTH CENTRAL SOUTH DAKOTA

CITY           SKY/WX    TMP DP  RH WIND       PRES   REMARKS
RAPID CTY ARPT MOCLDY    49  44  83 CALM      29.72R
PIERRE         MOCLDY    57  49  74 W8        29.63F
CUSTER         MOCLDY    46  40  79 W8        29.79R
ELLSWORTH AFB  MOCLDY    55  44  68 SW3       29.71R
PHILIP         PTCLDY    51  46  83 SW7       29.68R
PINE RIDGE     CLOUDY    52  48  86 SW5       29.74S
WINNER         FAIR      58  46  64 N6        29.69S
$$

SDZ004>011-016>023-039-040-010700-
NORTHEAST SOUTH DAKOTA

CITY           SKY/WX    TMP DP  RH WIND       PRES   REMARKS
ABERDEEN       CLEAR     60  51  72 S14G23    29.61R
WATERTOWN      PTCLDY    61  59  93 S15G25    29.69S
SISSETON         N/A     64  60  87 S18G28    29.63S
$$

SDZ017-020-022-023-036>040-048>070-010700-
SOUTHEAST SOUTH DAKOTA

CITY           SKY/WX    TMP DP  RH WIND       PRES   REMARKS
SIOUX FALLS    CLOUDY    62  59  90 S10       29.75F
HURON          MOCLDY    61  59  93 S10       29.67S
CHAMBERLAIN    PTCLDY    52  48  86 CALM      29.69R
MITCHELL       PTCLDY    63  61  93 S16       29.70S
YANKTON        PTCLDY    61  57  88 SE7       29.73F
$$

ABBREVIATIONS USED IN REMARKS
   TC - TEMPERATURE IN CELSIUS
  WCI - WIND CHILL INDEX
   HX - HEAT INDEX
  VSB - VISIBILITY



USA.gov is the U.S. government's official web portal to all federal, state and local government web resources and services.